Regional Weather Roundup
Issued by NWS

Home | Current Version | Previous Version | Text Only | Print | Product List | Glossary Off
Versions: 1 2 3 4 5 6 7 8 9 10 11 12 13 14 15 16 17 18 19 20 21 22 23 24 25 26 27 28 29 30 31 32 33 34 35 36 37 38 39 40 41 42 43 44 45 46 47 48 49 50

000
ASUS44 KMEG 232010
RWRTN
TENNESSEE HOURLY STATE WEATHER ROUNDUP
NATIONAL WEATHER SERVICE MEMPHIS TN
300 PM CDT FRI JUN 23 2017

TNZ002-004-019-021-049-052-054-088>092-232100-
WEST TENNESSEE

CITY           SKY/WX    TMP DP  RH WIND       PRES   REMARKS
MEMPHIS INTL   CLOUDY    83  77  82 W8        29.78R HX  92
NWS MEMPHIS      N/A     81 N/A N/A MISG        N/A
JACKSON        CLOUDY    82  77  84 W13       29.75R HX  90
SOMERVILLE     CLOUDY    81  77  89 VRB7G14   29.77R
COVINGTON      PTSUNNY   82  77  83 W10       29.76R HX  91
UNION CITY     PTSUNNY   82  75  78 W10G18    29.71R
BOLIVAR        CLOUDY    81  75  83 SW12      29.77R
PARIS          PTSUNNY   81  75  83 W9G17     29.70R
HUNTINGDON     PTSUNNY   81  75  83 W13       29.72R
LEXINGTON      CLOUDY    79  75  89 SW14G21   29.74R
SELMER         CLOUDY    75  73  94 SW10      29.78R
SAVANNAH       CLOUDY    75  73  94 SW10G18   29.78R FOG
$$

TNZ008-025-027-028-033-062-065-066-232100-
NORTH MIDDLE TENNESSEE

CITY           SKY/WX    TMP DP  RH WIND       PRES   REMARKS
NASHVILLE      CLOUDY    78  73  84 SW20G30   29.70F
PORTLAND       PTSUNNY   77  75  94 S17G28    29.66S
CLARKSVILLE    CLOUDY    76  72  87 SW16G30   29.63F
SMYRNA         CLOUDY    78  74  87 SW15G23   29.71S THUNDER
COOKEVILLE     PTSUNNY   82  72  69 S18G30    29.74F
GALLATIN       PTSUNNY   77  75  94 S12G21    29.70F
CROSSVILLE     CLOUDY    78  68  71 S13G24    29.84F
$$

TNZ061-075-076-078-094-096-097-232100-
SOUTH MIDDLE TENNESSEE

CITY           SKY/WX    TMP DP  RH WIND       PRES   REMARKS
FAYETTEVILLE   PTSUNNY   79  73  83 SW14G23   29.79S FOG
TULLAHOMA      PTSUNNY   79  70  73 S18       29.78F
WINCHESTER     MOSUNNY   82  72  69 S14         N/A
MCMINNVILLE    MOSUNNY   81  73  78 S12       29.76F
COLUMBIA       CLOUDY    77  75  94 SW22G29   29.72F
SHELBYVILLE    FOG       75  73  94 SW16G29   29.76R VSB 3/4
$$

TNZ017-018-042-046-047-232100-
NORTHEAST TENNESSEE

CITY           SKY/WX    TMP DP  RH WIND       PRES   REMARKS
TRI CITIES     PTSUNNY   88  65  46 SW14      29.87F HX  90
ELIZABETHTON   MOSUNNY   90  61  37 W12G22    29.88F
$$

TNZ012-013-036-069-073-074-232100-
CENTRAL EAST TENNESSEE

CITY           SKY/WX    TMP DP  RH WIND       PRES   REMARKS
KNOXVILLE      NOT AVBL
OAK RIDGE      CLOUDY    85  66  53 S12G26    29.82F
DOWNTOWN KNOXV MOSUNNY   88  68  51 SW13G23   29.81F HX  91
GATLINBURG     SUNNY     91  57  31 SW26G40   29.82F HX  90
MORRISTOWN     MOSUNNY   90  63  40 W14G22    29.84F HX  90
JACKSBORO      CLOUDY    81  70  69 S12G22    29.85F
$$

TNZ083-085-099-232100-
SOUTHEAST TENNESSEE

CITY           SKY/WX    TMP DP  RH WIND       PRES   REMARKS
CHATTANOOGA    PTSUNNY   89  69  51 S26G38    29.83F HX  93
$$

SKY/WX REPORTED AS FAIR MEANS FEW OR NO CLOUDS BELOW
12 THOUSAND FEET.




USA.gov is the U.S. government's official web portal to all federal, state and local government web resources and services.